Flag for U.S.A. Weather past 2 weeks in Lowell, Massachusetts, U.S.A.

41 °F

Mostly cloudy.

Feels Like: 37 °F
Forecast: 37 / 51 °F
Wind: 6 mph from East

Location: Hanscom Field

Current Time: Nov 28, 2015 at 6:13:03 PM

Latest Report: Nov 28, 2015 at 4:56 PM

Visibility: 8 mi

Pressure: 30.20 "Hg

Humidity: 93%

Dew point: 39 °F

Location of LowellLocation

Historic Weather in Lowell — Graph


Lowell temperature yesterday

Maximum temperature yesterday: 66 °F (at 12:56 PM)
Minimum temperature yesterday: 47 °F (at 12:56 AM)
Average temperature yesterday: 56 °F

Past Weeks' High & Low Weather Summary

High66 °F (Nov 27, 12:56 PM)100% (Nov 26, 11:56 PM)30.91 "Hg (Nov 26, 11:56 PM)
Low18 °F (Nov 18, 6:56 AM)21% (Nov 16, 3:56 PM)29.58 "Hg (Nov 13, 3:56 PM)
Average41 °F69%30.29 "Hg
* Reported Nov 13 3:56 PM — Nov 28 3:56 PM, Lowell, Weather by CustomWeather, © 2015

Note: Actual official high and low records may vary slightly from our data, if they occured in-between our weather recording intervals... More about our weather records


Lowell weather history for previous 24 hours

Time TempWeatherWind HumidityBarometerVisibility
3:56 PM
Sat, Nov 28
42 °FMostly cloudy.6 mph89%30.21 "Hg10 mi
3:00 PM42 °FLight rain. More clouds than sun.6 mph92%30.14 "Hg10 mi
1:56 PM43 °FLight rain. Fog.7 mph97%30.18 "Hg6 mi
1:03 PM45 °FLight rain. Fog.9 mph97%30.15 "Hg6 mi
12:56 PM45 °FLight rain. Fog.9 mph97%30.19 "Hg5 mi
11:56 AM47 °FLight rain. Mostly cloudy.9 mph93%30.19 "Hg8 mi
10:56 AM47 °FLight rain. Mostly cloudy.10 mph93%30.21 "Hg8 mi
9:56 AM49 °FLight rain. Overcast.6 mph90%30.20 "Hg10 mi
8:56 AM51 °FLight rain. Overcast.10 mph89%30.20 "Hg10 mi
7:56 AM51 °FLight rain. Mostly cloudy.No wind86%30.17 "Hg10 mi
6:56 AM52 °FPassing clouds.3 mph77%30.14 "Hg10 mi
5:56 AM54 °FPassing clouds.5 mph72%30.14 "Hg10 mi
4:56 AM53 °FPassing clouds.6 mph74%30.14 "Hg10 mi
3:56 AM54 °FPassing clouds.5 mph72%30.13 "Hg10 mi
2:56 AM54 °FClear.6 mph72%30.14 "Hg10 mi
1:56 AM56 °FPassing clouds.8 mph67%30.15 "Hg10 mi
12:56 AM56 °FPassing clouds.9 mph70%30.14 "Hg10 mi
11:56 PM
Fri, Nov 27
56 °FClear.12 mph70%30.16 "Hg10 mi
10:56 PM57 °FClear.12 mph67%30.16 "Hg10 mi
9:56 PM57 °FClear.14 mph69%30.19 "Hg10 mi
8:56 PM57 °FClear.14 mph69%30.19 "Hg10 mi
7:56 PM57 °FClear.10 mph67%30.22 "Hg10 mi
6:56 PM57 °FClear.10 mph67%30.22 "Hg10 mi
Weather by CustomWeather, © 2015

See weather overviewHow to use our weather pages